Regional Weather Roundup
Issued by NWS

Home | Current Version | Previous Version | Text Only | Print | Product List | Glossary On
Versions: 1 2 3 4 5 6 7 8 9 10 11 12 13 14 15 16 17 18 19 20 21 22 23 24 25 26 27 28 29 30 31 32 33 34 35 36 37 38 39 40 41 42 43 44 45 46 47 48 49 50
000
ASUS43 KLOT 300908
RWRIL

ILLINOIS REGIONAL WEATHER ROUNDUP
NATIONAL WEATHER SERVICE CHICAGO/ROMEOVILLE IL
400 AM CDT TUE MAY 30 2017

NOTE: "FAIR" INDICATES FEW OR NO CLOUDS BELOW 12,000 FEET WITH NO
SIGNIFICANT WEATHER AND/OR OBSTRUCTIONS TO VISIBILITY.

* THESE STATIONS ARE NOT UNDER NWS QUALITY CONTROL. THEY ALSO MAY NOT
  REPORT WEATHER SUCH AS PRECIPITATION OR FOG.

ILZ001-002-007-009-015-016-024-301000-
NORTHWEST ILLINOIS

CITY           SKY/WX    TMP DP  RH WIND       PRES   REMARKS
MOLINE         PTCLDY    54  46  74 W6        29.97R
STERLING*      CLEAR     53  48  83 W8        29.96R
SAVANNA*       PTCLDY    57  47  68 W9        29.95R
$$

ILZ003-004-008-010-011-017-018-301000-
NORTH CENTRAL ILLINOIS

CITY           SKY/WX    TMP DP  RH WIND       PRES   REMARKS
ROCKFORD       CLEAR     52  47  83 W5        29.94R
FREEPORT*      CLEAR     52  46  80 SW5       29.95R
ROCHELLE*      CLEAR     51  47  85 W6        29.94R
DE KALB*       CLEAR     53  47  79 W8        29.93S
PERU*          CLEAR     54  45  72 W9        29.95S
$$

ILZ005-006-012>014-019>023-301000-
NORTHEAST ILLINOIS

CITY           SKY/WX    TMP DP  RH WIND       PRES   REMARKS
CHICAGO-OHARE  CLEAR     56  46  69 W7        29.91R
CHICAGO-MIDWAY CLEAR     59  47  64 W7        29.91R
AURORA         CLEAR     54  47  77 SW7       29.93S
LANSING*       CLEAR     55  49  81 W7        29.93R
JOLIET*        CLEAR     56  48  73 CALM      29.93S
WAUKEGAN       CLEAR     53  49  86 VRB3      29.89R
DUPAGE AIRPORT CLEAR     53  48  83 W7        29.91S
KANKAKEE*      MOCLDY    55  46  72 CALM      29.95S
WHEELING       CLEAR     56  48  74 W7        29.92R
MORRIS*        CLEAR     52  46  79 CALM      29.93S
ROMEOVILLE*    CLEAR     53  49  87 W6        29.93R
NORTHERLY ISL    N/A     61  45  55 W7          N/A
$$

LMZ740>746-301000-
SOUTHERN LAKE MICHIGAN

STATION/POSITION SKY/WX   TEMP    WIND        PRES    VSBY  WAVE
                          AIR SEA DIR/SP/G                  HT/PER
                          (F)     (DEG/KT/KT) (MB)    (MI)  (FT/S)
WILMETTE HARBOR            55 53  240/  6/  8   N/A           1
HARRISON CRIB              63     270/ 12/ 14   N/A
BURNHAM HARBOR             60     280/  8/  9   N/A
CALUMET HARBOR             60     240/  4/  6 1012.5R
BURNS HARBOR               61     230/  8/ 11 1013.2
MICHIGAN CITY              57     190/  7/  8   N/A
MICHIGAN CITY 6N           58 56  220/  6/  6   N/A           1
ST. JOSEPH                 58 59  220/  6/  8 1012.6          1/ 4
$$

ILZ025>027-034>036-040-047-049-050-058-095>099-301000-
WEST-CENTRAL ILLINOIS

CITY           SKY/WX    TMP DP  RH WIND       PRES   REMARKS
QUINCY         PTCLDY    56  46  69 W7        30.02R
GALESBURG*     CLEAR     55  46  72 W6          N/A
MACOMB*        CLEAR     53  46  79 W8        30.03R
JACKSONVILLE*  MOCLDY    60  47  60 W6        30.00S
PITTSFIELD*    MOCLDY    61  50  67 W3        30.03S
$$

ILZ028>032-037-038-041>044-048-051>054-059>061-301000-
CENTRAL ILLINOIS

CITY           SKY/WX    TMP DP  RH WIND       PRES   REMARKS
PONTIAC        CLEAR     56  49  79 SW3       29.96S
BLOOMINGTON    CLEAR     55  45  68 SW6       29.98S
DECATUR        CLOUDY    61  48  62 W5        29.99R
PEORIA         CLEAR     54  47  77 W3        29.98R
LACON*         CLEAR     56  47  73 CALM      29.96R
LINCOLN*       MOCLDY    63  45  53 CALM      29.98S
SPRINGFIELD    CLOUDY    60  50  69 W7        30.00R
TAYLORVILLE    CLOUDY    60  53  76 SW5       30.00R
$$

ILZ033-039-045-046-055>057-062-063-301000-
EAST-CENTRAL ILLINOIS

CITY           SKY/WX    TMP DP  RH WIND       PRES   REMARKS
CHAMPAIGN      CLEAR     56  45  66 W5        29.98R
RANTOUL*       CLEAR     58  47  67 W6        29.97R
MATTOON        PTCLDY    62  52  69 SW5       29.98S
PARIS*         CLEAR     57  52  82 W7        29.99S
$$

ILZ079-100>102-301000-
SOUTHWEST ILLINOIS

CITY           SKY/WX    TMP DP  RH WIND       PRES   REMARKS
ALTON          PTCLDY    57  54  88 W3        30.02S
BELLEVILLE     CLEAR     57  55  94 CALM      30.02S FOG
CAHOKIA*       CLEAR     58  56  93 CALM      30.01S FOG
SPARTA*        CLEAR     62  57  84 CALM      30.02S
$$

ILZ064>066-069>071-074>076-080>082-084>086-088>090-092>094-301000-
SOUTH-CENTRAL ILLINOIS

CITY           SKY/WX    TMP DP  RH WIND       PRES   REMARKS
CARBONDALE     CLEAR     58  58 100 CALM      30.01S
CAIRO*         PTCLDY    64  64  99 S3        30.02R
EFFINGHAM*     CLEAR     54  54 100 CALM      30.02R
MARION           N/A     59  59 100 CALM      30.02S FOG
MT. VERNON       N/A     54  54 100 CALM      30.02R FOG
CENTRALIA*     PTCLDY    58  57  98 CALM      30.00S
SALEM*         PTCLDY    59  58  94 CALM      30.01S
METROPOLIS*    PTCLDY    61  61  99 CALM      30.03R FOG
$$

ILZ067-068-072-073-078-083-087-091-301000-
SOUTHEAST ILLINOIS

CITY           SKY/WX    TMP DP  RH WIND       PRES   REMARKS
LAWRENCEVILLE  MOCLDY    59  56  89 S3        30.00S
FLORA*         CLEAR     59  56  91 SW5       30.01R
FAIRFIELD*     PTCLDY    58  58  99 CALM      30.01R
HARRISBURG*    FOG       57  57 100 CALM      30.02S VSB 1/4
ROBINSON*      CLEAR     55  53  95 N6        30.01R
CARMI*         CLEAR     57  57 100 CALM      30.01S FOG
$$

ABBREVIATIONS USED IN REMARKS
   TC - TEMPERATURE IN CELSIUS
  WCI - WIND CHILL INDEX
   HX - HEAT INDEX
  VSB - VISIBILITY
$$





USA.gov is the U.S. government's official web portal to all federal, state and local government web resources and services.